Temperature
18 18 18 18 18 18 18 18 18 18 18 17 17 17 17 16 16 16 16 15 15 15 15 15 15 14 14 14 14 14 14 15 14 15 16 16 15 15 15 15 15 15 15
18 17 17 17 18 18 18 18 18 18 18 17 17 17 17 16 16 16 16 15 15 15 15 14 14 14 14 14 14 14 14 14 14 15 16 17 16 15 15 15 15 15 15
19 18 17 17 18 18 18 18 18 18 18 17 17 17 17 16 16 16 15 15 15 15 14 14 14 14 14 14 13 13 13 14 14 14 15 17 17 16 16 14 14 14 15
20 19 18 18 18 18 18 18 18 18 18 17 17 17 17 16 16 16 15 15 15 14 14 14 14 14 14 14 14 13 13 13 15 14 14 14 14 15 16 16 15 14 14
20 19 19 18 18 18 18 18 18 18 18 17 17 17 16 16 16 16 15 15 15 14 14 14 14 14 14 13 13 13 13 13 14 14 14 14 14 14 15 16 15 15 15
20 20 19 18 18 18 18 18 18 18 18 18 17 17 16 16 16 16 15 15 15 14 14 14 14 14 13 13 13 13 13 13 13 13 14 14 14 15 15 15 15 15 15
21 20 19 19 18 18 18 18 18 18 18 18 17 17 17 16 16 16 15 15 15 15 14 14 14 13 13 13 13 13 13 12 12 12 13 13 13 13 14 14 15 15 15
21 20 20 19 18 18 18 18 18 18 18 18 18 17 17 16 16 16 16 15 15 15 14 14 14 13 13 13 13 13 12 12 12 12 12 12 13 13 13 13 14 14 15
22 21 20 20 19 19 18 18 18 18 18 18 18 18 17 16 16 16 16 15 15 15 14 14 14 13 13 13 13 13 12 12 12 12 12 12 12 12 12 12 13 13 14
22 22 21 20 20 19 19 18 18 18 18 18 18 18 17 17 16 16 16 15 15 15 14 14 14 13 13 13 13 12 12 12 12 12 12 12 12 12 12 12 12 12 13
23 22 22 21 20 20 19 19 19 19 19 18 18 18 17 17 17 16 16 16 15 15 14 14 14 14 13 13 13 13 12 12 12 12 12 12 12 12 12 12 12 12 12
24 23 22 21 21 20 20 19 19 19 19 19 18 18 18 17 17 16 16 16 15 15 15 14 14 14 13 13 13 13 13 12 12 12 12 12 12 12 12 12 12 12 11
24 23 23 22 21 21 20 20 19 19 19 19 19 18 18 18 17 17 16 16 16 15 15 14 14 14 13 13 13 13 13 13 12 12 12 12 12 12 12 11 12 12 12
23 23 23 22 21 21 20 20 20 20 19 19 19 19 18 18 17 17 16 16 16 15 15 15 14 14 14 14 13 13 13 13 13 12 12 12 12 12 12 11 11 11 11
23 23 22 22 21 21 20 20 20 20 19 19 19 19 19 18 17 17 16 16 16 15 15 15 14 14 14 14 14 13 13 13 13 13 13 12 12 12 12 12 11 11 11
23 22 22 21 21 21 20 20 20 20 20 20 19 19 19 18 18 17 17 16 16 15 15 15 15 14 14 14 14 14 13 13 13 13 13 12 12 13 13 12 12 12 11
22 22 21 21 21 21 20 20 20 20 19 20 19 19 18 18 18 17 17 16 16 16 15 15 15 15 15 15 15 14 14 13 13 13 13 13 13 12 12 12 12 12 12
21 21 21 20 20 20 20 19 19 19 19 19 19 18 18 18 18 17 17 16 16 16 15 15 15 15 15 15 15 14 14 14 13 13 13 13 13 12 12 12 11 11 11
19 19 19 19 19 19 19 19 19 19 19 18 18 18 18 18 17 17 17 16 16 16 15 15 15 15 15 15 15 14 14 13 13 13 13 13 13 13 13 12 11 11 11
17 18 18 18 18 18 18 18 18 18 18 18 17 17 17 17 17 17 17 16 16 16 15 15 15 15 15 15 15 14 14 13 13 13 13 13 13 13 13 12 12 11 11
16 16 17 17 17 17 17 17 17 17 17 17 17 17 17 17 16 16 16 16 15 15 15 15 14 14 14 14 14 14 13 13 13 13 13 13 13 13 13 12 12 12 12
15 15 16 16 16 16 16 16 16 16 16 16 16 16 16 16 16 16 15 15 15 14 15 14 14 14 14 14 14 14 13 13 12 12 13 13 13 12 12 12 12 12 12
14 14 15 15 15 15 15 15 15 15 15 15 15 16 16 15 15 15 14 14 14 14 13 13 14 14 13 13 13 13 13 12 12 12 12 12 12 12 12 12 12 12 11
13 14 14 14 14 14 14 14 14 14 14 14 14 15 15 14 14 14 13 13 13 13 13 13 13 13 13 13 12 12 12 12 12 11 11 11 12 12 12 11 11 11 11
13 13 13 13 13 13 13 13 13 13 13 13 13 13 13 13 13 13 13 12 12 12 12 12 12 12 12 12 11 11 11 11 11 10 10 10 11 11 11 11 11 11 11
12 12 12 12 12 12 12 12 12 12 12 12 12 12 12 12 12 12 11 11 11 11 11 11 11 11 11 11 11 10 10 10 10 10 10 10 11 11 11 12 12 11 11
Wind_Speed
11 11 11 10 11 11 11 12 11 10 9 8 8 7 7 6 6 6 7 6 5 5 2 3 3 1 2 2 1 2 0 2 3 4 3 2 2 0 1 1 1 1 2
13 12 12 11 12 13 13 12 11 11 11 8 7 6 6 6 6 5 7 6 6 5 4 2 2 2 2 2 1 1 2 2 2 4 4 2 3 3 1 0 0 2 2
15 15 13 13 13 13 14 12 12 12 11 10 8 7 6 6 6 6 6 6 6 5 3 3 1 2 1 2 1 1 2 2 1 3 4 3 2 1 2 0 1 1 2
15 16 15 14 14 14 14 13 12 12 11 11 10 10 8 7 7 6 6 7 7 6 5 4 3 2 1 2 1 2 1 2 2 1 1 3 4 4 1 3 2 1 1
16 16 16 16 15 14 13 13 12 12 11 11 10 10 8 7 6 6 7 7 6 6 6 6 4 3 2 1 1 1 2 2 3 2 1 1 1 4 5 4 3 3 2
16 16 15 15 14 14 13 13 13 13 12 12 12 11 9 8 7 7 7 7 6 6 7 7 5 5 3 3 3 2 2 1 2 3 3 3 3 3 4 5 5 5 4
15 16 16 16 16 16 15 15 15 14 14 13 12 11 10 9 9 8 8 7 6 7 8 7 6 5 4 4 3 3 2 2 2 3 3 3 3 4 4 5 6 6 5
15 16 17 16 17 17 17 16 16 15 15 14 12 11 11 9 8 8 7 7 6 6 7 7 7 6 6 6 4 4 4 3 3 3 3 4 3 3 4 5 6 7 5
16 17 17 17 17 18 18 17 17 16 15 14 13 12 11 10 8 8 8 7 6 6 8 8 7 7 7 6 6 4 4 4 5 4 5 5 3 4 4 5 5 6 7
17 17 17 18 17 17 17 17 17 16 15 15 13 11 12 11 10 9 9 7 7 7 8 8 8 8 7 7 7 6 5 5 5 4 4 5 5 4 5 5 5 6 7
17 17 17 17 17 17 17 17 17 16 15 15 14 13 12 12 11 10 10 9 9 9 9 9 8 8 8 8 7 7 6 7 6 6 6 7 6 5 5 5 6 6 7
16 17 17 17 17 18 18 18 17 17 16 15 14 14 13 12 12 12 11 11 10 10 10 9 9 9 9 8 8 8 8 8 8 7 7 8 6 7 7 6 7 7 7
15 16 16 17 17 18 18 18 18 17 16 15 15 15 14 14 14 13 12 11 11 11 10 10 10 10 9 9 9 9 9 9 8 8 8 8 8 8 8 7 8 7 8
14 15 16 16 16 17 17 17 17 17 16 16 16 16 15 15 14 13 13 12 12 12 11 11 11 10 10 10 10 10 10 10 9 9 9 10 10 10 9 8 9 9 9
12 14 15 15 15 16 16 16 16 16 15 16 16 16 15 14 14 13 13 12 12 12 12 11 11 11 11 11 11 10 11 11 11 11 11 11 10 9 9 9 9 8 9
10 11 12 13 14 15 15 15 15 15 15 15 15 14 14 14 14 13 13 13 12 12 12 12 12 12 11 9 10 10 11 11 11 12 12 12 12 13 15 14 13 12 12
5 7 8 10 10 12 13 13 13 13 13 14 13 13 13 14 14 14 13 13 13 13 12 12 13 13 12 11 13 14 12 13 12 12 12 12 11 12 13 15 18 18 19
1 3 4 5 6 7 9 10 11 11 12 12 12 12 13 13 12 13 13 13 12 12 12 13 13 13 13 14 15 14 14 15 15 15 15 14 14 14 13 14 14 15 15
3 2 1 2 3 4 6 8 8 9 10 10 11 11 11 11 12 12 12 12 11 11 12 12 13 13 13 13 15 14 12 13 16 16 16 16 16 15 13 15 16 16 15
5 5 4 5 4 3 5 6 7 7 7 7 7 7 8 9 10 10 10 10 10 10 11 11 12 13 13 11 14 15 12 13 14 14 15 17 19 16 15 16 17 17 17
8 7 7 7 7 5 5 5 4 3 3 3 4 5 6 7 7 7 8 8 9 9 10 10 11 11 12 11 13 15 12 13 14 14 14 13 16 19 19 18 18 18 16
10 9 9 9 8 7 6 5 4 2 2 3 3 4 4 5 5 6 7 7 8 9 9 9 10 10 10 11 11 15 16 15 14 14 15 14 9 13 16 16 18 18 15
11 10 11 11 10 9 8 7 5 4 3 3 3 3 3 2 3 4 6 6 7 8 8 8 9 9 8 8 12 14 16 17 14 14 16 15 13 11 13 18 19 16 14
10 10 11 11 11 10 9 8 7 5 4 3 3 2 2 1 1 3 4 5 5 6 7 8 8 8 8 8 7 7 8 11 13 14 14 16 18 17 17 16 14 15 16
9 9 10 10 10 9 8 8 7 5 5 4 3 3 2 1 0 1 2 4 4 4 6 7 8 9 9 6 6 7 9 10 10 10 12 14 15 15 15 15 16 15 15
8 9 9 9 9 8 8 8 7 5 5 5 4 3 3 2 2 2 2 2 4 4 6 8 9 8 10 11 11 12 12 13 11 10 14 16 17 17 17 16 15 15 16
Wind_Direction
176 173 179 180 178 176 173 174 171 166 166 166 165 164 163 160 154 152 145 148 140 137 135 113 122 94 75 42 24 344 337 338 337 297 274 228 218 229 225 299 300 274 271
175 179 183 183 184 183 181 178 176 175 176 166 162 165 156 160 158 159 151 157 154 156 153 131 148 116 117 111 58 351 333 9 357 320 297 253 188 196 130 224 24 344 298
180 179 183 185 185 186 184 182 180 178 174 162 163 155 152 166 169 171 169 170 169 170 158 163 154 148 186 109 96 359 349 342 2 357 323 309 328 270 167 150 18 342 325
185 182 184 186 186 185 182 179 176 175 170 170 176 174 181 182 179 181 171 172 180 179 176 178 172 188 154 134 193 79 333 311 329 66 357 344 346 307 272 203 175 216 291
186 186 187 187 184 180 178 174 173 174 176 181 180 187 191 184 177 178 167 183 179 186 187 185 180 186 194 155 83 130 305 309 325 330 321 314 253 270 292 296 299 273 265
186 186 185 183 181 178 176 172 173 178 181 184 186 195 190 188 184 186 182 193 187 189 189 190 191 198 192 179 194 210 213 304 335 315 310 301 302 303 299 293 286 293 289
185 184 182 182 181 179 178 177 177 181 183 187 190 193 193 194 197 201 197 206 199 195 186 194 195 200 194 197 202 210 241 231 243 266 288 301 300 308 303 301 305 304 291
185 184 184 183 182 182 181 181 182 184 186 189 192 194 196 203 203 204 210 205 210 200 177 191 196 198 198 202 203 226 217 224 241 255 277 279 275 284 287 298 305 301 297
185 186 185 186 185 185 185 186 185 187 189 191 192 195 199 208 203 190 206 206 201 190 184 192 193 195 199 208 215 234 232 229 240 241 228 251 267 264 274 279 287 297 301
188 189 188 189 189 189 188 190 190 192 193 193 196 197 198 200 198 201 201 198 193 191 188 193 196 198 200 205 221 228 219 232 237 251 266 264 264 264 267 270 273 276 286
190 190 191 192 192 191 190 191 194 195 197 198 199 200 198 197 197 199 197 193 194 191 196 198 200 203 206 209 217 235 224 231 238 239 237 242 263 267 269 265 269 271 275
192 192 192 192 193 194 194 194 197 199 200 199 199 200 199 197 199 200 198 194 194 197 199 202 205 210 212 213 219 228 229 232 238 240 242 244 242 244 260 267 268 271 274
194 193 192 193 196 197 199 200 201 202 202 199 200 201 200 199 202 202 198 197 197 201 202 205 210 215 217 218 221 227 232 235 239 241 242 245 247 248 254 257 267 271 268
197 197 196 197 199 201 202 204 206 205 202 199 200 201 201 201 201 201 199 199 199 202 205 208 214 218 220 222 224 225 230 237 240 241 243 245 245 245 251 253 256 264 273
196 200 202 202 203 204 205 207 207 205 202 200 201 202 200 199 200 200 200 200 203 206 208 213 217 220 222 224 224 228 231 235 241 242 241 243 242 251 251 260 264 263 265
201 200 201 203 205 207 207 206 206 202 199 201 203 199 195 195 198 200 200 202 206 212 213 217 221 223 227 202 207 234 245 243 244 247 247 246 232 231 227 240 251 260 262
202 202 202 204 206 207 206 204 202 196 195 200 202 197 195 196 198 200 201 205 208 212 216 221 225 230 230 199 202 217 242 250 250 250 250 253 250 229 240 231 227 238 242
174 188 197 198 202 202 201 201 195 191 194 198 200 197 197 197 199 203 205 209 212 216 219 224 228 233 232 204 208 213 234 249 252 251 250 251 256 251 246 251 248 246 243
41 67 112 157 167 178 184 182 185 185 192 199 200 197 198 198 198 205 209 211 214 219 223 227 231 235 236 210 208 212 241 245 249 250 249 249 250 244 229 245 254 256 256
46 49 62 78 92 110 142 156 165 174 189 195 194 192 196 201 203 206 209 209 214 222 229 232 234 238 243 220 205 208 241 251 254 252 249 242 241 247 222 239 249 254 257
58 62 62 62 60 70 96 114 124 144 168 175 174 177 189 203 210 211 212 215 219 226 233 242 241 242 246 235 213 210 237 255 260 262 260 256 221 223 225 231 246 252 258
59 64 67 62 55 57 77 82 73 59 89 120 138 164 182 201 204 213 217 221 228 231 233 238 247 247 242 241 231 216 226 249 261 265 267 270 243 221 223 230 242 246 250
61 64 71 67 60 55 59 67 58 51 61 94 121 137 150 179 207 218 223 226 228 243 249 249 253 254 252 241 226 227 230 235 247 261 268 279 279 263 249 239 236 236 243
62 64 69 68 61 55 54 53 49 49 57 61 68 93 110 148 198 239 241 243 245 247 254 260 264 268 265 264 263 257 253 244 247 259 263 254 251 250 257 261 242 237 242
64 61 64 66 63 58 54 51 53 55 60 60 56 59 72 74 17 277 296 285 287 299 286 284 285 283 279 295 327 298 285 287 291 293 276 270 266 260 255 253 251 248 244
69 66 65 66 64 61 56 49 46 48 51 51 40 32 31 25 349 325 301 244 260 257 250 254 267 280 278 292 295 288 281 279 281 280 271 269 266 264 264 263 260 253 250
Height
1516 1519 1522 1525 1529 1533 1536 1540 1543 1546 1549 1553 1556 1558 1560 1562 1564 1566 1567 1568 1569 1569 1570 1572 1570 1571 1572 1571 1572 1572 1572 1572 1571 1572 1571 1571 1571 1571 1570 1571 1571 1571 1571
1515 1518 1521 1524 1528 1531 1535 1538 1542 1545 1548 1551 1554 1557 1559 1561 1563 1565 1566 1567 1568 1568 1570 1570 1571 1571 1570 1570 1571 1571 1572 1572 1571 1571 1570 1570 1571 1570 1570 1570 1570 1570 1570
1512 1516 1519 1523 1526 1529 1532 1536 1540 1543 1546 1549 1553 1555 1557 1560 1562 1564 1565 1566 1567 1568 1568 1569 1570 1570 1571 1571 1570 1570 1571 1571 1571 1570 1571 1569 1568 1569 1569 1569 1568 1568 1568
1510 1514 1517 1520 1524 1528 1531 1535 1538 1541 1545 1548 1551 1554 1556 1559 1561 1563 1564 1564 1565 1566 1567 1568 1568 1569 1570 1569 1570 1570 1570 1570 1571 1570 1569 1570 1569 1569 1568 1569 1568 1567 1567
1507 1511 1515 1519 1523 1526 1530 1533 1536 1539 1543 1546 1549 1552 1555 1558 1560 1561 1562 1563 1564 1564 1566 1566 1567 1567 1569 1568 1568 1568 1568 1569 1569 1570 1569 1569 1568 1568 1569 1567 1568 1567 1567
1505 1509 1513 1517 1521 1524 1528 1531 1534 1537 1540 1544 1547 1550 1553 1555 1557 1559 1560 1561 1562 1563 1564 1565 1565 1566 1567 1567 1567 1567 1567 1567 1567 1567 1568 1568 1568 1568 1567 1566 1566 1565 1565
1502 1507 1511 1514 1518 1522 1526 1529 1532 1535 1539 1542 1545 1548 1551 1553 1555 1557 1558 1559 1561 1562 1561 1563 1563 1564 1565 1565 1565 1565 1566 1566 1566 1566 1566 1567 1567 1566 1566 1565 1564 1563 1563
1500 1504 1508 1511 1515 1519 1523 1527 1530 1533 1537 1540 1543 1546 1548 1551 1553 1554 1556 1557 1559 1560 1559 1560 1561 1562 1563 1564 1563 1565 1565 1564 1564 1564 1564 1564 1565 1564 1564 1564 1563 1562 1561
1498 1502 1505 1509 1513 1517 1521 1524 1528 1531 1535 1538 1541 1543 1545 1548 1550 1551 1552 1554 1555 1556 1556 1557 1558 1559 1560 1561 1561 1563 1562 1562 1563 1563 1562 1562 1563 1562 1562 1562 1561 1561 1559
1495 1499 1503 1507 1511 1515 1518 1522 1525 1528 1532 1535 1538 1540 1543 1545 1546 1548 1550 1551 1552 1553 1554 1555 1556 1557 1558 1558 1559 1560 1560 1560 1560 1560 1560 1560 1561 1560 1560 1559 1559 1558 1558
1492 1496 1500 1504 1508 1512 1516 1519 1522 1525 1528 1532 1534 1537 1539 1541 1543 1545 1546 1547 1548 1549 1551 1552 1553 1554 1555 1556 1556 1558 1558 1558 1558 1558 1558 1557 1557 1557 1557 1557 1556 1555 1555
1489 1493 1498 1502 1505 1509 1512 1515 1519 1522 1525 1528 1530 1533 1536 1538 1539 1541 1543 1544 1545 1546 1547 1549 1550 1551 1553 1553 1554 1554 1555 1555 1555 1555 1555 1555 1555 1554 1553 1553 1553 1552 1550
1487 1491 1494 1498 1502 1505 1509 1512 1515 1518 1521 1524 1526 1529 1531 1533 1535 1537 1539 1540 1541 1543 1544 1545 1547 1548 1549 1550 1550 1551 1552 1552 1552 1552 1552 1551 1551 1550 1550 1549 1549 1548 1547
1484 1487 1491 1494 1498 1501 1504 1507 1511 1514 1517 1519 1522 1524 1526 1529 1531 1533 1535 1536 1538 1539 1540 1542 1543 1544 1545 1546 1547 1547 1548 1548 1548 1548 1547 1547 1547 1546 1546 1545 1544 1543 1543
1481 1484 1487 1490 1494 1497 1500 1503 1506 1509 1512 1515 1517 1519 1522 1525 1527 1529 1531 1532 1534 1535 1537 1538 1539 1540 1541 1542 1543 1544 1544 1544 1544 1544 1543 1543 1542 1541 1541 1541 1541 1540 1538
1479 1481 1484 1486 1489 1492 1495 1498 1500 1504 1506 1509 1512 1515 1517 1520 1522 1524 1526 1528 1530 1531 1533 1534 1535 1536 1538 1538 1538 1539 1540 1540 1539 1539 1538 1538 1536 1536 1535 1535 1534 1534 1533
1477 1479 1481 1483 1485 1488 1490 1493 1496 1499 1501 1504 1507 1510 1512 1515 1517 1520 1522 1523 1525 1527 1528 1529 1530 1531 1532 1533 1533 1534 1534 1534 1534 1533 1533 1533 1533 1531 1530 1528 1527 1527 1526
1477 1478 1479 1481 1483 1485 1487 1489 1492 1494 1497 1500 1502 1505 1507 1510 1512 1515 1517 1518 1520 1522 1523 1524 1525 1526 1527 1527 1528 1528 1528 1527 1527 1527 1526 1526 1525 1525 1524 1523 1522 1521 1519
1477 1478 1478 1479 1481 1482 1484 1486 1488 1491 1493 1496 1498 1500 1503 1505 1507 1510 1512 1514 1516 1517 1518 1519 1519 1520 1521 1521 1522 1522 1521 1521 1520 1520 1519 1519 1518 1518 1517 1516 1515 1514 1513
1477 1477 1478 1478 1479 1480 1482 1484 1485 1488 1490 1492 1494 1496 1499 1501 1503 1506 1508 1509 1510 1512 1513 1514 1514 1514 1514 1515 1515 1515 1515 1515 1514 1513 1512 1511 1510 1510 1509 1509 1508 1506 1505
1478 1477 1478 1478 1479 1480 1481 1482 1484 1486 1488 1490 1491 1492 1494 1497 1499 1502 1503 1505 1506 1506 1507 1507 1508 1508 1508 1508 1508 1508 1507 1507 1507 1506 1506 1505 1503 1502 1501 1501 1499 1498 1498
1479 1479 1478 1478 1479 1480 1481 1482 1483 1485 1486 1487 1488 1490 1491 1493 1495 1497 1498 1499 1500 1500 1500 1500 1501 1501 1501 1501 1500 1500 1500 1499 1498 1497 1497 1497 1495 1493 1492 1491 1490 1489 1489
1481 1481 1480 1480 1480 1481 1482 1482 1483 1484 1485 1486 1487 1487 1488 1489 1491 1492 1493 1493 1494 1495 1495 1495 1495 1495 1495 1494 1493 1492 1491 1490 1489 1487 1487 1486 1485 1484 1482 1480 1480 1479 1478
1484 1484 1483 1482 1482 1482 1483 1483 1483 1483 1484 1484 1485 1485 1485 1486 1487 1488 1489 1489 1490 1490 1489 1489 1489 1489 1488 1488 1486 1485 1484 1482 1481 1479 1477 1476 1474 1473 1471 1470 1469 1467 1466
1488 1487 1485 1484 1484 1484 1484 1483 1483 1484 1484 1483 1484 1483 1483 1483 1484 1484 1485 1485 1485 1484 1484 1483 1482 1482 1481 1480 1479 1477 1476 1474 1473 1470 1468 1466 1465 1463 1461 1460 1458 1457 1456
1490 1489 1488 1487 1487 1487 1486 1485 1484 1485 1484 1483 1483 1483 1483 1483 1483 1483 1482 1480 1480 1479 1478 1476 1476 1474 1473 1471 1470 1469 1467 1465 1463 1460 1458 1457 1455 1453 1452 1450 1448 1447 1445